Theta_e
338 338 337 337 337 338 338 339 338 338 337 338 339 339 340 338 336 334 335 335 335 336 336 337 338 338 338 338 339 339 339 339 338 338 337 337 336 335 333 331 328 327 325 323 323 325 326 327 328 328 327 327 326 326 325 325 324 324 323 323 322 322 321 320 320 320 320 320 320 319 319 319 319 319 319 318 318 318 317 317 317 316 316 316 316
338 338 338 338 337 337 338 338 338 338 337 338 338 338 339 339 339 337 337 337 336 336 336 337 337 338 338 339 339 339 339 339 338 338 337 337 337 336 334 332 331 328 327 325 323 323 323 324 327 328 329 328 327 326 326 326 325 325 324 323 323 322 322 321 321 320 320 320 320 319 319 320 320 319 319 319 319 318 318 317 317 317 316 316 316
338 338 338 338 338 337 337 337 337 338 338 338 337 337 338 338 338 338 339 339 338 338 336 336 336 337 338 338 339 339 339 339 339 338 337 337 338 337 336 334 332 330 329 327 325 324 323 323 325 327 329 329 328 328 328 327 326 326 325 324 324 323 323 323 323 322 321 320 319 319 319 320 320 320 320 319 319 319 319 318 317 317 317 317 317
338 337 338 338 338 337 338 338 337 337 337 338 337 337 337 337 337 337 338 339 338 339 338 337 337 337 337 337 338 339 338 339 339 339 338 338 337 338 338 336 334 333 331 329 327 326 325 324 324 326 327 328 328 328 329 329 327 326 326 325 325 324 324 323 324 324 322 321 320 320 320 320 320 320 320 320 319 319 319 319 318 318 317 317 317
336 336 337 337 337 338 337 337 337 337 337 338 337 337 337 337 337 337 337 337 337 338 338 338 338 337 337 337 338 338 338 338 339 339 339 338 338 338 337 337 336 335 333 331 329 328 327 325 325 325 326 327 327 326 328 329 329 328 328 327 326 325 325 325 325 324 324 323 323 322 321 321 320 320 320 320 320 319 319 319 319 318 318 318 317
335 335 336 336 336 336 336 337 337 338 337 338 337 336 336 336 336 337 335 336 336 336 338 338 337 337 337 337 337 338 338 338 337 338 338 338 338 338 338 337 337 336 335 334 332 330 329 328 326 326 325 326 327 328 328 329 330 330 329 329 328 327 326 326 326 326 325 325 324 324 324 323 322 321 320 319 320 320 319 319 319 319 318 318 318
334 335 335 335 335 335 335 335 337 337 336 337 337 336 336 336 336 336 335 335 335 334 335 336 336 336 336 337 338 337 338 337 337 337 337 337 337 338 338 337 337 337 336 336 335 334 332 330 328 327 326 325 326 328 330 332 332 331 331 331 329 329 327 327 327 327 326 326 326 326 325 325 324 323 322 320 320 319 319 319 319 319 319 319 318
332 333 334 333 333 333 334 335 336 336 336 337 337 336 336 336 336 336 335 334 334 332 333 334 335 335 335 337 337 337 337 337 337 337 337 336 336 336 337 337 337 337 336 337 337 336 335 333 331 330 329 327 326 326 328 330 332 331 332 332 331 330 329 328 328 328 328 327 327 326 326 326 325 325 324 323 321 321 320 320 319 319 319 319 319
330 332 333 333 331 331 332 334 335 335 336 336 336 336 336 336 336 337 336 335 333 332 332 333 334 335 335 335 336 337 337 336 337 337 336 336 336 335 336 336 336 336 336 336 337 337 336 335 334 332 331 330 329 328 327 327 328 329 330 331 332 331 331 331 329 329 328 328 327 327 327 326 326 326 325 324 323 322 322 321 320 320 320 320 320
329 330 331 332 331 331 331 333 334 334 335 335 335 336 336 336 336 336 337 336 334 333 334 334 336 335 335 335 336 336 337 336 336 336 336 335 335 334 334 334 335 335 335 336 336 337 337 337 335 334 333 331 331 331 330 328 326 326 327 328 329 329 330 331 330 330 329 328 327 328 328 328 327 327 327 326 325 324 323 323 322 321 321 321 321
328 329 330 330 331 331 331 332 332 333 333 333 333 334 335 336 336 335 335 335 335 334 334 336 336 336 337 337 336 336 336 335 335 335 335 335 335 333 333 333 333 334 334 334 335 335 337 338 337 336 334 334 333 332 332 330 329 328 327 326 326 326 327 328 329 330 330 329 327 327 328 327 328 328 328 327 326 325 325 324 323 323 323 322 322
327 328 329 330 330 330 331 331 331 331 331 331 331 332 333 335 335 334 334 334 334 334 335 336 336 336 336 337 338 338 337 336 335 334 334 334 334 334 334 333 334 334 334 334 333 334 336 337 337 337 337 335 334 334 333 332 331 330 330 329 327 327 327 327 328 328 329 329 328 328 327 327 327 328 328 328 328 327 326 326 325 324 324 323 323
327 327 328 329 329 330 330 331 330 329 330 330 329 330 331 332 333 333 333 332 332 332 334 334 334 334 334 335 338 338 337 337 336 335 334 334 334 335 335 335 335 335 335 335 335 334 335 336 336 336 336 335 334 334 333 333 332 332 332 331 330 330 329 328 328 328 328 328 329 329 329 329 328 327 327 328 329 328 328 327 327 326 325 325 325
326 326 327 329 329 330 331 331 331 330 330 329 329 330 330 331 332 332 332 331 332 332 332 333 332 332 333 333 332 331 335 338 338 336 336 336 336 336 337 337 337 337 336 337 337 336 335 335 336 336 336 335 334 334 335 334 333 333 333 333 333 332 331 331 330 329 329 328 328 329 330 330 330 329 328 329 329 329 329 329 328 328 327 326 326
326 326 326 328 329 330 330 331 331 331 330 328 328 328 329 330 331 331 331 331 330 330 331 332 332 331 331 331 329 329 332 336 337 336 336 336 336 335 336 337 337 337 337 337 337 336 336 335 335 335 336 336 335 335 334 335 335 334 334 333 333 333 333 332 331 331 331 330 329 329 330 330 331 331 331 330 330 330 330 330 329 329 329 328 327
326 326 326 327 328 329 329 330 330 330 329 327 327 327 328 329 330 331 330 329 328 328 330 331 332 331 330 329 329 329 328 331 335 334 333 334 334 335 336 336 337 337 337 337 337 337 336 337 336 335 336 336 337 336 335 335 335 335 334 332 332 331 331 331 331 331 330 330 330 330 330 331 332 332 332 332 333 332 332 332 331 331 330 330 329
327 326 326 326 327 327 328 328 329 328 328 327 327 327 328 329 329 330 330 330 329 328 329 331 331 330 331 330 329 329 328 330 331 331 331 332 333 334 335 336 336 336 337 337 336 337 337 337 336 336 336 336 337 336 335 335 336 336 335 334 333 331 330 329 330 330 330 331 331 330 331 332 332 333 334 334 334 334 333 333 333 332 332 332 331
328 328 328 328 327 327 327 327 327 327 327 327 327 327 328 328 329 330 330 331 331 329 329 329 330 330 330 330 330 330 331 330 330 329 329 330 331 332 333 334 335 336 336 336 336 336 337 336 337 336 337 337 337 337 337 336 336 336 335 334 333 330 329 329 329 330 330 331 331 332 332 333 333 333 334 335 334 333 333 334 333 333 333 333 332
328 328 328 328 328 327 327 327 326 327 327 327 327 327 327 328 328 329 329 330 331 330 329 329 329 329 329 329 330 330 330 330 330 329 329 330 330 331 331 332 334 334 335 335 335 336 336 336 336 335 336 337 338 337 337 336 335 335 334 333 331 329 329 329 329 330 332 332 332 333 333 333 333 333 334 334 334 334 333 333 333 333 333 333 332
326 326 327 328 328 328 328 327 327 327 327 326 327 327 327 327 328 328 329 329 329 329 328 328 328 328 329 330 331 331 330 330 330 330 330 330 329 329 330 332 333 333 334 334 334 334 335 335 335 334 335 336 337 336 336 335 334 335 334 334 333 330 329 330 331 331 332 333 333 333 334 334 333 334 334 334 334 334 334 334 334 334 334 333 333
326 325 325 326 327 327 327 327 328 328 327 326 327 327 327 327 327 328 328 328 329 328 328 328 328 328 329 330 331 330 329 330 330 330 330 329 329 329 330 332 332 333 333 333 334 333 333 334 334 334 334 335 335 335 335 334 334 335 334 333 333 331 330 331 332 332 332 333 333 333 334 334 334 334 334 334 334 334 334 335 335 334 334 335 334
325 324 324 325 326 325 325 326 327 327 327 327 328 328 328 328 327 328 328 328 329 329 328 328 328 329 330 330 330 330 330 330 331 331 331 331 331 330 331 332 332 333 333 333 334 332 332 332 333 333 333 333 334 334 333 333 333 333 332 332 331 331 331 332 332 332 332 332 333 333 333 333 334 334 334 335 334 334 335 335 335 335 335 335 334
324 323 324 324 325 325 324 324 325 326 327 327 327 327 328 328 328 328 328 329 329 329 329 329 329 330 330 330 331 330 330 330 331 331 331 331 331 331 331 332 332 332 331 332 332 331 331 331 331 332 332 332 332 333 332 331 331 331 331 331 331 331 331 331 331 332 332 332 332 332 332 332 333 333 333 334 334 334 335 335 335 335 335 334 334
323 323 323 323 323 323 323 323 324 325 326 326 326 327 327 327 327 327 328 328 328 328 328 328 328 329 329 329 330 330 329 329 329 330 330 330 330 330 331 331 332 331 329 330 331 331 330 330 330 331 330 331 331 331 331 330 330 330 329 329 330 330 331 331 330 331 331 331 331 331 331 331 331 331 331 332 332 333 333 333 333 333 333 333 332
322 322 322 321 321 321 321 322 322 323 324 325 326 326 326 326 326 326 327 327 326 326 326 326 326 327 328 327 327 328 327 327 328 329 329 329 330 330 330 330 331 331 329 329 329 329 328 328 329 329 329 330 330 330 330 329 329 329 327 326 328 330 329 329 329 328 328 329 330 330 330 330 331 331 331 331 331 331 331 331 331 332 332 332 332
321 320 319 319 319 319 319 320 321 322 323 325 325 325 326 325 325 324 324 324 324 324 324 324 324 324 325 325 325 325 325 325 326 327 327 328 329 329 330 330 330 330 329 327 327 327 327 327 326 327 328 328 327 327 327 327 327 327 325 325 326 327 327 327 326 326 326 327 328 328 329 330 331 331 331 331 332 331 331 331 331 331 332 332 333
319 318 317 317 318 318 318 319 321 321 323 325 325 324 324 323 322 322 322 321 321 321 321 321 322 322 323 324 324 323 323 323 323 324 325 325 327 328 328 328 328 329 328 327 327 327 326 326 324 323 324 326 325 324 323 325 326 325 324 323 323 324 324 324 324 324 325 326 327 328 328 329 330 330 330 331 331 332 332 331 331 331 331 332 332
317 315 315 316 316 317 318 319 320 321 323 324 324 323 322 321 320 320 319 318 318 318 318 318 318 320 321 321 322 322 322 322 322 323 323 323 324 325 326 327 327 327 328 328 328 326 323 323 322 320 319 322 323 321 320 321 323 323 323 323 322 321 321 321 322 323 324 324 326 327 326 327 328 329 329 330 331 331 331 331 331 331 331 331 332
314 314 314 315 315 317 319 319 320 321 322 323 323 321 320 319 318 318 318 318 318 317 317 317 317 318 318 319 320 320 320 321 321 322 321 322 323 323 323 325 325 326 327 326 326 324 321 319 318 317 317 317 319 320 318 317 319 321 321 321 319 318 318 319 320 322 322 323 325 325 325 325 326 327 327 327 328 328 329 329 330 331 331 331 332
312 313 314 315 316 317 318 319 320 321 321 321 320 319 319 319 318 318 318 318 318 317 316 316 316 316 316 317 318 318 319 319 319 320 320 321 322 322 322 323 324 325 326 326 324 323 321 318 315 314 314 314 315 318 317 314 316 319 319 319 318 316 316 317 318 319 320 320 321 323 323 323 323 324 325 325 325 325 325 326 327 328 329 330 330
312 312 314 315 316 317 318 319 320 320 320 319 319 319 318 317 317 317 317 317 316 315 314 314 314 314 314 314 315 316 317 317 318 318 319 320 320 321 321 322 323 323 325 327 325 321 319 318 314 312 313 312 311 314 315 313 314 317 318 318 317 317 316 315 314 316 317 317 318 320 320 321 321 321 322 323 323 322 322 323 324 326 327 328 329
311 312 314 315 316 316 318 318 318 319 319 318 317 317 316 316 316 316 315 315 314 313 312 312 312 313 312 312 313 313 314 316 316 316 317 317 318 319 319 320 321 321 322 325 325 319 316 316 314 311 311 310 309 311 313 312 313 315 317 317 318 317 316 315 312 311 311 312 315 317 318 318 318 318 318 320 321 320 321 321 322 323 324 325 327
310 312 314 315 315 315 316 317 317 317 316 316 316 316 316 316 316 315 313 313 312 312 311 311 311 311 311 311 311 312 312 313 313 314 314 315 316 316 317 318 318 318 320 322 324 320 315 313 311 309 309 308 307 308 310 311 311 313 315 316 316 315 313 313 311 307 306 308 310 314 316 315 315 315 315 316 317 318 319 319 320 320 322 323 324
310 312 314 314 314 314 315 316 315 314 314 315 316 316 316 315 313 312 311 311 311 310 310 310 310 310 310 310 310 311 311 312 312 312 313 313 313 314 314 314 315 315 316 319 320 318 313 311 310 308 308 307 307 307 309 310 310 311 313 314 315 312 310 311 310 306 304 304 306 309 312 314 314 312 312 312 313 314 315 317 317 318 319 321 323
309 312 313 313 313 314 315 315 315 314 315 315 315 314 313 312 311 310 310 310 310 310 310 309 309 309 310 310 310 311 311 311 311 311 312 312 311 312 312 312 312 313 313 315 316 314 311 309 308 307 306 305 304 306 307 308 308 310 311 312 314 311 308 308 308 305 303 302 303 306 308 311 312 313 311 311 311 311 311 313 314 315 317 319 321
310 312 313 312 312 313 314 315 314 314 313 312 311 310 310 309 308 308 308 309 309 309 309 309 309 309 309 309 310 310 310 310 310 310 311 311 311 311 311 310 310 310 310 311 311 310 308 306 305 306 305 304 303 304 305 305 306 308 309 309 311 310 306 305 305 304 303 303 302 304 306 307 308 311 311 310 310 310 309 309 310 312 313 315 318
310 312 312 311 312 312 312 312 311 310 309 308 308 308 307 308 308 308 308 308 308 308 308 308 308 308 308 308 309 309 310 310 310 310 310 310 310 310 309 308 308 307 307 308 307 307 306 305 304 303 303 304 302 302 303 304 303 306 307 307 308 309 306 303 302 301 302 305 304 303 305 306 306 308 309 307 306 307 308 308 307 308 310 311 313
310 312 312 312 312 311 311 310 309 308 308 307 307 306 306 307 307 307 307 307 307 308 308 308 308 307 307 306 307 307 308 309 309 309 308 307 307 308 308 307 306 306 305 306 305 305 304 304 303 302 302 302 302 301 301 302 302 303 306 305 306 308 307 303 300 299 300 305 305 302 304 307 306 307 308 304 302 303 304 305 305 306 307 308 310
309 311 312 312 311 310 309 308 308 307 306 305 305 305 305 306 307 307 307 307 307 307 307 307 307 306 305 304 304 303 302 304 305 307 307 306 305 306 307 306 305 305 305 304 303 303 303 302 301 301 301 301 301 300 300 301 301 302 304 305 304 307 308 304 300 298 298 303 305 301 302 306 307 307 308 304 301 301 302 302 303 304 305 306 307
308 310 311 311 310 309 308 308 307 306 305 305 305 305 305 305 306 307 306 306 306 306 306 306 306 305 304 303 301 299 297 296 297 299 302 304 304 305 306 306 304 304 304 303 302 302 302 302 301 300 300 299 300 299 299 301 302 302 302 303 303 305 307 305 302 297 296 301 305 301 300 305 307 308 308 306 302 300 301 301 302 302 303 303 305
308 309 310 309 309 308 308 308 306 305 304 302 302 304 305 305 305 306 306 306 305 305 305 305 305 303 302 300 299 296 295 293 292 292 294 296 298 299 302 304 304 303 302 302 301 300 300 301 300 300 299 299 299 299 299 300 301 302 302 301 302 304 304 305 303 298 295 299 305 302 299 302 307 307 307 307 304 301 300 300 299 300 301 301 302
307 308 309 309 309 308 308 307 306 305 302 298 296 299 302 304 305 304 304 305 304 304 304 304 304 304 302 300 298 296 293 291 289 290 291 291 292 292 295 298 301 302 302 302 301 300 299 299 300 300 300 299 299 298 298 299 300 302 301 300 301 303 302 302 303 298 293 296 303 304 299 299 304 305 304 305 305 301 299 298 298 298 299 300 300
306 307 308 309 308 308 308 307 306 304 301 297 295 295 297 301 304 304 303 303 303 303 303 303 302 302 303 302 301 300 298 294 291 289 289 290 290 290 290 292 294 296 299 301 301 300 299 298 298 299 299 299 298 297 297 298 299 301 301 299 300 302 302 301 303 300 294 294 301 304 299 298 301 302 301 303 305 302 298 297 298 298 298 298 299
304 306 307 308 308 308 308 307 306 303 300 298 296 295 295 298 302 303 302 302 302 302 301 301 300 300 301 301 301 300 299 299 296 293 291 290 290 289 290 290 290 291 292 295 298 300 300 298 298 297 298 298 297 296 296 297 299 300 299 298 300 302 302 301 301 301 296 292 297 303 300 297 299 300 299 301 304 304 299 296 296 297 297 297 298
304 305 307 308 308 308 307 306 305 303 301 299 298 296 294 295 300 302 302 302 302 301 301 300 300 300 299 300 300 299 298 299 299 298 296 295 294 293 293 292 291 289 289 290 292 295 297 298 297 297 297 297 296 295 294 294 297 299 298 298 299 301 302 302 301 302 298 292 294 301 301 297 297 299 298 299 302 304 300 296 296 296 297 297 297
303 305 307 308 308 308 307 306 305 303 301 300 299 298 294 294 298 301 301 301 301 301 300 299 299 299 299 299 299 299 298 298 299 299 299 298 297 297 296 294 292 289 289 289 290 291 293 295 296 295 293 293 293 292 290 290 294 297 298 298 299 300 301 302 302 302 299 292 292 299 302 297 296 298 297 298 301 302 300 297 297 296 296 297 296
303 304 306 307 308 308 307 306 305 304 302 301 301 299 296 294 297 301 301 301 300 300 299 299 298 298 298 298 298 297 296 294 294 296 298 298 298 297 296 295 292 289 288 288 289 289 290 291 292 291 289 288 288 288 288 287 290 295 298 299 299 299 300 301 301 301 299 293 290 296 302 298 296 297 297 297 300 300 298 298 299 297 296 297 296
301 303 304 306 306 307 307 306 306 304 302 301 301 300 297 296 299 302 301 300 300 300 299 298 298 297 298 297 297 296 294 291 289 292 295 297 297 297 296 296 294 291 288 287 288 289 289 289 289 288 287 287 287 287 287 287 288 293 298 297 297 299 298 298 299 299 298 293 289 293 300 298 295 297 296 297 300 299 297 298 299 298 297 297 297
299 301 302 303 305 306 306 306 305 304 302 301 301 301 299 298 300 302 301 300 300 300 299 298 297 296 296 296 297 296 293 290 289 289 292 296 297 296 296 296 296 294 292 289 288 287 288 288 287 287 287 287 286 286 286 286 287 292 296 296 296 298 297 296 298 298 297 294 289 290 297 297 295 296 296 297 299 299 297 298 299 298 297 297 298
299 299 300 301 302 303 305 305 305 305 303 300 300 300 299 298 301 302 301 301 300 300 300 298 296 294 292 292 294 294 292 289 289 289 291 296 297 296 297 296 296 296 295 293 291 290 289 288 288 288 288 287 288 288 287 286 286 289 294 296 296 297 296 296 297 296 297 295 289 290 295 297 295 296 296 297 299 298 297 298 298 298 297 296 298
299 299 298 299 299 300 302 302 301 303 303 298 297 299 298 297 300 302 301 300 300 300 299 298 297 294 291 289 290 290 289 289 289 289 290 295 298 297 296 296 295 295 294 294 294 293 293 292 292 292 292 291 292 291 289 288 287 288 291 294 295 296 296 295 295 295 296 295 290 289 295 296 295 295 296 296 298 298 297 298 298 297 296 296 297
Wind_Speed
2 1 0 1 1 2 2 2 2 2 2 3 3 3 3 3 4 5 6 6 6 6 6 6 5 5 5 5 5 5 5 4 4 3 3 3 4 6 7 5 5 6 6 7 8 9 11 12 12 12 12 13 11 11 10 9 10 11 11 12 15 13 11 10 10 10 11 11 11 10 11 11 11 12 12 12 12 13 12 12 12 12 12 12 12
1 0 0 1 2 2 3 3 3 3 3 4 3 3 3 4 4 5 5 5 6 6 6 7 7 7 6 6 6 5 5 5 5 4 4 4 4 6 8 6 5 6 6 7 8 9 10 11 13 13 14 15 13 12 13 12 11 12 12 13 16 15 13 12 11 11 11 12 11 11 11 12 13 13 13 14 14 14 13 14 14 13 14 14 14
0 1 1 2 2 2 3 3 4 4 4 4 4 4 5 5 5 5 5 5 5 5 6 7 7 7 7 7 6 6 6 5 5 5 5 5 4 5 7 7 6 6 7 8 8 9 9 10 12 13 14 16 16 15 15 14 13 12 12 13 15 15 14 14 13 12 11 11 11 10 11 12 13 14 14 14 15 15 15 15 15 15 15 15 15
2 2 2 3 2 2 3 3 4 4 5 5 5 5 6 6 6 6 6 6 6 6 6 7 7 7 7 7 7 7 6 6 6 6 5 5 5 5 6 7 8 7 8 9 9 9 10 10 11 12 14 15 16 16 16 16 15 13 13 14 16 16 16 14 13 13 13 12 11 11 11 12 13 14 16 16 16 16 16 16 16 16 16 16 16
3 3 3 4 4 3 3 3 3 4 4 5 5 6 6 7 7 7 7 8 8 8 7 8 8 7 7 7 7 7 7 6 6 6 6 6 6 5 5 6 8 9 9 9 10 10 11 11 12 13 13 14 14 14 16 17 16 15 15 14 16 17 16 15 14 14 14 13 13 13 12 13 13 14 16 16 17 17 17 17 17 17 17 17 17
3 4 4 5 5 5 4 4 4 4 4 5 5 6 6 7 7 7 8 9 9 9 8 8 8 8 8 7 7 7 7 7 7 6 6 6 6 6 6 6 7 8 9 10 10 10 11 12 13 13 14 14 14 14 15 16 17 16 16 15 16 18 17 16 16 17 17 16 15 15 14 15 14 15 15 16 17 18 18 17 17 18 17 18 18
4 5 5 5 6 6 6 5 5 5 5 5 5 6 6 6 7 7 8 9 10 9 9 9 9 9 8 7 8 8 8 8 8 7 7 7 7 7 7 7 7 8 9 10 10 11 11 12 13 14 15 15 15 15 15 16 16 16 16 16 17 18 18 18 19 19 19 19 18 18 17 16 17 17 16 16 16 17 18 18 18 18 18 18 18
5 5 6 6 6 6 6 6 6 6 6 6 6 6 6 6 6 7 8 9 9 9 10 10 10 10 9 9 9 9 9 9 9 9 9 8 8 8 8 8 8 8 8 9 10 12 13 12 13 14 15 15 15 16 16 17 17 17 17 17 18 19 18 19 19 20 21 21 21 20 19 18 18 18 18 18 18 17 18 18 18 18 19 19 18
5 6 7 7 7 7 6 6 6 6 7 7 7 7 7 7 7 7 7 8 9 9 9 10 10 10 11 11 11 10 10 10 10 10 10 10 10 10 10 10 10 10 9 10 10 11 13 14 13 13 14 15 16 16 16 17 18 18 18 18 19 19 18 19 19 20 22 23 22 22 21 21 20 20 20 20 20 20 18 18 18 18 19 19 18
5 6 7 7 7 7 6 6 6 6 7 7 7 7 7 7 8 7 6 7 8 8 8 8 9 10 11 11 11 12 12 12 12 12 12 12 12 12 12 12 11 11 11 10 10 10 12 13 14 14 14 15 15 16 16 17 18 19 19 19 19 19 19 20 20 21 22 22 23 22 21 21 22 22 22 22 22 21 21 20 19 19 19 19 19
5 5 6 7 8 7 7 7 6 6 6 7 7 7 7 7 8 7 7 7 8 8 8 8 8 9 10 11 12 13 13 13 13 13 13 14 13 13 13 13 12 12 12 12 12 11 11 11 12 13 14 14 14 14 15 16 17 18 19 20 20 20 20 20 21 21 22 22 23 23 23 22 22 23 23 23 23 23 22 22 21 20 20 20 20
6 6 6 6 7 7 7 7 7 7 7 7 7 7 7 7 8 7 7 8 7 7 7 7 9 10 10 11 11 12 13 13 13 14 14 14 13 13 13 13 13 12 13 13 12 12 12 11 12 13 13 14 14 14 14 14 15 17 18 19 20 21 21 21 21 21 22 23 24 24 24 24 24 23 24 25 25 25 24 24 23 23 22 21 21
6 6 6 6 7 7 8 8 7 7 7 6 7 7 7 7 7 7 7 8 8 7 6 7 9 9 9 9 9 11 11 11 12 13 13 13 12 12 12 12 12 12 12 12 12 12 12 12 13 13 13 13 14 15 14 14 14 14 15 17 18 19 20 21 21 22 23 23 24 24 24 25 26 25 25 26 27 27 26 26 25 25 25 24 23
7 6 6 6 7 7 8 8 8 7 6 6 5 6 7 7 8 8 8 8 8 7 6 7 8 9 8 7 9 9 8 7 8 9 9 9 9 10 10 10 10 11 10 10 10 11 12 12 13 13 13 13 13 13 13 13 13 14 14 14 15 16 17 19 20 21 22 23 23 24 24 25 26 26 26 25 26 27 28 27 27 27 27 27 26
7 6 6 6 7 7 7 6 5 5 5 5 5 6 6 7 8 8 8 8 8 7 5 5 7 8 8 6 6 5 4 5 5 4 5 6 7 7 7 7 8 8 8 9 10 10 11 11 11 12 12 13 13 13 13 12 13 14 14 12 13 13 14 15 17 18 20 21 22 23 24 26 27 27 26 25 25 26 27 28 27 28 28 28 28
6 6 5 6 7 7 6 6 5 5 5 6 7 7 7 8 8 8 8 8 8 6 5 5 6 6 6 6 5 5 5 3 2 4 5 5 6 6 6 6 6 6 6 7 7 8 8 9 10 10 11 12 13 13 13 12 12 14 14 12 11 11 11 12 13 14 16 17 18 20 21 23 25 25 25 24 23 24 26 27 27 27 27 26 27
7 7 6 6 7 7 7 7 7 7 7 8 9 8 8 8 8 8 8 8 8 7 6 6 5 5 5 6 5 5 4 4 6 6 4 4 5 6 6 6 6 6 6 6 7 6 6 7 7 8 9 10 12 12 12 11 10 11 10 10 11 11 11 11 12 12 13 13 14 15 17 19 20 21 21 21 22 23 24 25 26 26 25 24 24
9 9 8 8 7 7 7 7 7 8 8 8 9 8 8 8 8 8 7 7 7 8 7 6 6 7 7 7 6 6 6 7 7 5 4 6 6 6 6 6 7 7 7 8 8 7 7 6 6 6 7 8 9 9 9 9 9 8 8 9 10 11 12 12 12 11 11 12 13 13 15 16 16 17 18 19 20 23 24 25 26 27 27 27 26
10 10 9 9 8 8 7 7 7 7 7 7 8 8 8 7 7 7 7 6 7 8 8 7 7 7 7 7 8 9 9 8 7 5 6 6 6 7 8 7 7 7 8 9 9 9 8 8 8 7 7 7 7 7 8 9 9 9 9 10 10 11 11 12 12 11 11 11 13 14 14 15 15 14 15 17 18 21 22 22 24 26 27 27 28
11 10 9 9 9 8 8 8 7 6 6 6 6 6 7 7 7 7 6 6 6 7 8 7 7 6 5 6 8 9 9 8 9 8 6 6 7 8 7 6 6 6 6 7 8 8 8 8 10 9 8 7 7 7 7 9 10 10 9 9 11 12 11 12 12 11 11 11 12 13 13 14 13 12 13 16 17 20 22 21 21 23 24 24 26
10 10 10 9 9 9 9 8 8 7 7 7 6 6 6 6 6 6 6 6 5 6 7 7 7 7 6 6 7 8 8 7 8 8 7 7 7 6 7 7 7 6 5 5 7 8 8 9 9 10 10 9 9 9 8 9 8 8 7 8 11 12 11 10 10 10 10 10 11 12 12 13 12 11 12 15 17 19 20 20 21 22 23 22 23
9 9 10 10 10 10 10 9 9 8 8 8 7 7 6 6 5 5 5 5 5 5 6 6 6 6 6 7 7 7 7 5 5 6 7 7 6 7 8 8 7 7 6 6 7 7 8 8 8 9 10 9 9 8 7 7 6 6 8 8 9 9 8 8 8 9 9 9 9 11 11 12 11 10 11 14 17 18 17 19 20 20 20 20 21
8 8 9 9 9 9 10 10 9 8 8 8 7 7 6 5 4 4 4 5 5 4 5 5 4 5 5 6 6 6 6 6 6 7 7 6 6 6 8 9 9 9 7 5 7 8 8 8 8 7 7 6 5 5 4 5 5 5 7 8 7 6 6 7 8 8 9 9 9 10 10 11 11 10 11 13 15 16 17 17 18 18 19 20 21
8 9 9 9 9 9 10 9 8 8 8 8 7 6 6 6 6 6 5 5 6 6 5 5 4 4 4 5 5 5 5 6 7 7 7 8 7 5 7 9 8 9 8 6 7 7 7 8 7 7 7 7 8 8 6 6 6 6 9 10 7 6 6 6 7 8 8 8 8 9 9 9 9 9 9 10 12 14 15 16 17 18 19 20 20
9 9 9 10 10 10 10 10 8 8 8 8 7 6 6 8 8 7 6 7 7 6 7 7 6 5 4 5 6 6 5 5 6 6 7 8 7 6 8 8 7 8 9 8 7 8 14 14 13 14 12 10 10 11 10 10 10 9 10 10 6 5 6 7 7 7 7 8 8 8 8 7 7 7 6 7 8 10 11 12 14 15 16 17 18
9 9 9 10 10 10 11 10 8 7 7 8 8 8 8 8 9 9 9 8 8 7 7 7 7 7 7 7 7 7 6 6 6 7 7 8 8 7 8 8 8 8 7 7 10 14 13 11 13 16 14 14 13 13 12 11 11 13 12 11 10 9 8 7 7 7 8 8 9 9 10 9 7 6 6 5 6 7 8 9 10 10 11 13 15
8 9 10 10 9 10 10 9 7 6 6 7 7 8 9 9 11 12 12 12 11 10 9 9 8 9 8 8 8 7 7 6 6 7 8 9 9 9 8 6 6 6 4 3 9 14 12 9 14 18 16 14 14 14 14 11 9 12 13 13 13 13 11 10 10 8 9 9 9 10 12 11 8 6 5 4 5 6 7 8 9 9 10 11 13
8 9 10 10 10 9 9 8 6 5 6 7 7 7 9 11 11 12 13 13 12 11 11 10 10 9 8 7 7 7 7 7 7 8 8 9 9 9 9 8 6 5 4 3 7 12 15 13 15 19 18 14 13 13 14 12 12 12 12 11 14 15 14 13 14 12 11 10 9 11 14 12 9 7 6 5 5 5 6 7 7 8 9 9 10
8 9 10 9 10 9 8 7 5 5 6 7 7 8 9 11 11 11 11 11 9 9 10 9 9 9 8 8 7 6 7 7 7 8 8 8 8 7 8 8 7 5 4 4 5 8 14 16 15 16 16 14 12 11 12 13 14 13 11 11 14 16 15 13 13 13 13 13 12 12 12 12 11 10 10 10 9 8 7 7 7 7 7 7 8
8 9 9 9 9 9 8 7 6 6 7 7 7 7 8 9 9 9 10 9 7 7 8 8 8 8 8 8 7 6 7 7 7 7 7 7 7 7 8 8 8 8 5 3 5 7 10 12 14 14 13 13 12 10 10 13 13 13 11 11 13 16 16 15 14 14 13 14 14 14 12 12 12 11 11 11 11 11 10 10 9 8 7 7 7
7 8 7 7 7 7 6 6 6 7 8 8 7 7 9 10 9 8 9 8 7 7 7 7 7 8 8 8 8 7 7 6 6 7 7 7 7 7 7 8 9 9 9 4 3 7 9 9 11 13 12 11 12 11 10 12 14 13 10 9 11 14 15 16 16 16 16 16 15 15 15 14 14 13 13 11 11 12 12 12 11 10 9 9 8
7 7 6 6 6 6 6 6 6 7 8 8 8 9 9 9 8 8 8 8 7 7 8 8 8 8 8 9 9 9 9 7 7 7 7 7 7 7 7 7 7 8 9 6 5 6 8 8 8 10 10 10 12 14 11 11 13 12 10 8 10 11 11 12 15 17 18 18 16 16 16 16 16 16 16 15 13 14 14 13 13 13 13 12 11
6 6 6 6 6 6 6 6 6 7 7 8 8 8 7 8 8 8 8 8 7 8 8 9 9 9 9 9 10 10 10 9 9 8 8 8 8 8 8 7 8 8 8 7 6 7 7 8 8 10 11 11 13 15 14 13 13 12 11 9 9 11 10 9 12 15 18 18 17 16 16 17 18 18 18 18 16 16 15 15 15 15 15 15 14
6 5 5 6 6 5 6 6 6 8 8 8 7 6 6 7 8 8 8 8 8 8 9 10 10 10 10 10 11 11 10 10 10 10 10 10 9 10 10 9 10 10 9 8 7 7 8 9 9 10 13 13 14 14 14 13 13 12 12 10 10 11 12 10 10 13 18 19 17 16 16 16 18 20 20 20 19 18 18 17 17 17 17 17 16
4 4 5 5 5 6 6 6 6 7 6 6 6 6 7 7 7 8 8 9 9 9 10 10 10 10 11 11 12 11 10 11 11 11 11 11 10 11 11 11 11 11 11 11 9 8 9 10 10 11 13 14 15 15 14 13 12 11 12 12 10 12 14 13 12 13 18 21 18 16 16 16 17 19 20 21 20 20 20 19 19 19 19 19 18
3 4 4 5 5 5 6 6 5 5 5 6 6 7 7 7 8 8 8 9 10 10 11 11 11 12 12 12 12 12 11 12 12 13 13 12 12 12 12 12 12 12 12 13 12 10 10 11 12 12 12 13 15 15 15 13 12 11 11 11 11 12 14 15 14 14 18 21 19 16 17 18 17 17 19 20 20 21 21 21 21 21 20 20 20
3 4 4 4 5 5 5 5 6 6 7 7 7 7 7 8 8 8 9 9 10 11 11 12 12 13 13 13 14 13 13 13 13 14 14 14 13 13 13 12 13 13 13 13 13 12 11 11 12 13 13 13 13 15 16 15 13 11 9 10 11 12 14 15 16 16 16 17 17 17 17 16 17 18 19 21 21 21 21 21 22 22 22 21 21
3 4 4 4 4 5 6 6 7 7 7 7 7 7 7 8 8 8 9 9 10 11 12 12 13 14 14 15 15 15 14 14 14 14 14 14 14 14 14 13 12 12 13 12 12 12 12 12 12 12 14 14 13 15 16 15 14 13 11 10 10 11 12 15 17 17 16 14 15 17 16 13 14 17 19 22 24 23 22 22 22 23 23 22 22
4 4 4 5 5 5 6 7 7 7 7 7 8 7 7 7 8 8 9 9 10 11 11 12 13 14 16 16 17 18 17 16 14 13 12 13 13 13 14 13 12 12 12 12 12 12 12 13 13 13 13 14 14 14 15 14 13 15 14 12 11 11 10 13 17 19 18 14 13 16 16 13 12 14 17 21 26 27 25 25 24 24 23 22 22
4 4 5 5 5 6 6 6 7 7 8 7 7 7 7 7 7 8 8 9 10 10 11 12 13 14 16 17 18 19 20 20 18 16 14 12 12 13 13 13 13 13 12 12 12 13 13 12 13 13 13 13 14 14 15 15 14 16 16 14 12 12 10 10 15 21 21 15 12 14 17 14 12 12 13 17 23 27 28 28 27 26 25 23 22
4 4 4 5 5 6 6 7 7 8 8 8 7 6 6 6 7 8 8 9 9 10 11 12 13 14 15 17 19 20 20 21 21 21 21 19 17 15 14 13 13 13 13 13 13 13 13 13 12 13 13 14 15 15 15 16 15 14 15 14 12 12 11 8 12 20 24 18 12 13 17 15 11 11 12 13 18 23 27 29 29 27 26 25 23
4 4 4 5 5 5 6 7 8 8 9 10 9 8 7 7 7 7 8 9 9 9 10 11 11 12 13 14 17 19 20 21 22 22 22 23 23 22 20 18 15 13 13 13 14 13 13 13 12 12 12 13 14 14 14 14 14 13 14 14 12 12 12 9 9 17 26 23 13 11 16 16 12 11 12 13 14 19 25 28 28 27 27 27 26
4 4 4 5 5 6 6 7 8 8 9 11 10 8 8 9 8 7 8 9 9 9 9 9 10 10 10 11 11 12 14 16 19 21 22 23 23 23 23 23 21 19 15 13 13 13 13 13 13 12 12 13 14 14 14 14 14 14 13 13 13 11 12 11 9 14 25 26 16 9 13 17 14 11 12 12 12 15 22 27 26 26 28 28 28
5 5 5 5 6 6 6 7 8 8 9 10 10 8 8 9 10 8 7 8 8 8 9 9 9 9 9 9 9 9 10 11 13 15 19 21 22 22 22 22 23 23 21 18 14 12 12 12 13 13 12 12 13 14 15 15 14 14 13 12 13 12 10 11 10 11 21 27 18 9 11 17 15 11 11 12 10 11 18 25 26 27 28 29 29
6 6 6 6 7 6 7 7 8 8 8 9 9 9 7 9 11 9 7 8 8 8 9 8 8 8 8 9 9 8 9 10 8 8 11 13 16 18 18 19 21 21 22 22 19 16 13 12 12 13 12 12 12 13 14 15 14 13 13 13 13 12 10 10 10 9 16 26 21 10 9 16 16 12 11 12 10 9 13 21 26 27 28 29 30
7 7 7 7 7 7 7 7 8 8 8 8 8 8 7 8 11 10 7 8 9 8 9 9 9 9 8 8 9 8 7 8 7 7 7 8 10 12 13 14 16 18 19 19 19 18 16 14 12 12 12 12 12 13 14 15 13 12 12 12 12 13 10 7 7 7 12 24 25 13 8 15 17 14 12 12 10 9 12 18 23 27 28 28 30
7 7 7 7 8 7 7 7 7 7 7 7 7 7 7 9 11 9 7 7 8 8 9 9 9 9 9 8 9 9 8 9 10 10 9 8 9 10 11 11 13 15 17 17 17 17 16 15 13 12 12 12 12 13 14 14 12 10 11 11 10 12 10 4 3 6 9 20 26 16 7 13 17 14 13 12 9 10 12 14 20 26 27 27 29
8 7 7 7 8 8 8 7 7 7 7 7 7 6 7 9 10 7 6 7 8 8 9 9 9 9 9 8 8 8 9 10 11 12 11 9 8 9 9 9 9 12 15 16 15 14 14 13 12 11 11 11 11 12 13 13 13 12 10 8 8 11 9 7 6 7 9 17 26 19 9 12 17 15 14 12 8 9 13 13 16 22 25 25 26
9 8 8 8 8 8 8 7 7 7 7 7 6 6 6 8 8 5 5 6 7 7 8 8 8 8 8 8 8 7 8 10 10 11 12 10 7 7 8 7 8 9 10 11 12 13 13 12 12 11 11 11 13 14 14 12 13 14 12 10 11 12 11 10 8 8 9 15 25 22 11 12 16 16 16 13 7 8 14 14 15 18 21 22 22
10 9 9 8 8 8 8 7 7 7 7 8 7 6 6 9 8 4 4 6 6 7 8 8 8 8 9 11 10 8 8 10 10 9 10 9 6 5 6 6 7 8 7 7 7 9 10 10 11 12 12 13 14 14 14 13 14 15 13 11 13 12 10 10 10 8 8 12 22 22 13 12 16 15 17 15 7 8 14 15 15 17 19 20 18
11 10 9 9 8 8 7 8 8 7 6 8 8 7 7 9 9 4 3 6 7 6 7 8 8 8 8 10 11 10 10 10 9 8 8 8 6 4 4 6 7 7 6 5 4 4 5 6 7 8 8 10 10 9 11 13 14 15 13 11 11 11 10 10 10 9 7 10 19 20 13 12 15 15 16 14 8 8 14 15 15 17 19 20 18
Wind_Direction
79 83 103 263 276 263 245 229 220 210 215 223 223 222 218 214 213 219 218 220 225 223 228 230 228 238 245 249 254 256 260 259 258 247 235 235 223 247 277 269 234 229 218 210 204 205 212 214 219 224 226 227 223 221 222 226 230 234 233 232 242 250 248 245 243 238 234 236 241 244 249 252 255 257 258 258 257 255 255 255 255 258 260 260 261
71 125 205 241 261 271 271 262 248 232 223 223 222 225 228 227 224 232 229 228 232 228 232 238 237 237 240 246 251 252 256 257 257 252 240 238 224 237 269 278 248 238 231 224 217 212 212 212 217 224 227 228 225 225 229 229 228 234 239 242 250 259 261 261 262 253 240 238 242 244 245 247 250 254 257 259 259 258 256 257 257 258 259 261 262
320 261 242 239 245 260 270 270 264 253 242 236 230 228 233 235 233 240 244 243 243 238 236 239 242 242 240 241 244 246 247 250 251 252 248 242 235 234 258 277 271 249 238 234 229 222 219 217 219 223 226 227 227 229 234 233 228 231 242 249 253 259 263 266 268 263 254 249 251 252 248 245 246 250 254 256 258 259 259 259 258 259 260 261 261
274 261 255 250 245 248 256 261 264 260 255 252 248 244 241 240 239 239 243 247 246 243 241 243 245 245 242 237 236 242 241 241 244 245 246 244 245 238 240 261 275 270 252 242 238 234 230 227 226 226 226 227 229 230 232 234 232 230 239 247 252 257 261 264 267 266 263 260 261 263 260 254 248 249 252 252 254 256 258 260 260 260 261 262 262
274 266 265 264 257 249 247 247 249 257 257 258 261 257 251 248 245 242 242 243 243 242 240 243 244 243 244 240 234 239 239 240 241 241 244 243 241 241 237 241 257 271 272 259 245 241 240 237 234 233 231 229 230 231 230 233 235 236 241 245 250 255 259 264 267 268 268 267 270 271 270 267 259 256 255 253 253 253 256 258 259 261 263 264 264
280 272 269 270 267 259 254 250 243 248 255 259 263 263 263 261 257 254 251 249 250 247 244 246 248 245 244 243 241 240 240 242 242 240 243 245 241 240 242 238 236 247 261 269 263 252 245 243 242 239 238 237 236 237 235 235 236 239 242 245 247 250 256 265 270 270 270 271 274 276 275 273 268 265 262 260 257 255 257 258 258 259 261 263 263
278 272 269 269 269 266 263 258 250 252 259 258 261 266 267 267 268 267 263 259 257 255 254 255 256 255 252 248 249 247 244 244 244 242 242 241 242 238 237 241 239 234 239 252 264 267 258 248 246 246 243 242 241 241 238 237 238 240 243 245 248 249 251 259 268 271 271 273 275 276 277 275 274 271 269 267 265 262 261 262 262 260 258 260 262
280 272 269 268 265 266 264 260 256 257 260 258 263 265 264 265 266 269 272 270 267 262 258 258 257 258 256 252 251 250 250 251 247 246 248 243 243 241 238 240 240 239 239 240 247 259 265 259 251 250 249 248 248 246 242 239 238 239 241 243 247 249 250 253 259 265 268 271 273 275 275 275 275 275 274 272 270 269 267 265 265 264 262 259 260
291 280 273 270 268 266 261 257 254 255 258 260 262 262 263 265 264 264 269 273 275 272 265 261 258 256 255 253 252 251 251 254 252 252 253 250 249 248 245 245 243 241 242 243 240 243 256 263 260 254 251 251 251 251 250 246 244 243 242 242 243 247 250 253 255 257 260 265 269 272 274 275 275 275 276 275 272 271 270 269 268 266 266 264 262
301 294 282 276 272 268 262 255 250 253 257 259 261 262 263 263 264 264 264 271 277 279 277 272 266 262 258 254 251 250 250 251 251 251 252 253 254 254 254 252 249 247 245 246 247 241 243 255 265 264 256 252 251 252 254 252 251 251 251 249 248 248 249 252 255 256 256 260 264 268 271 274 275 274 274 275 274 273 272 272 271 268 268 269 267
306 301 293 284 277 269 264 257 252 254 258 262 263 263 264 264 266 267 266 270 273 277 283 283 277 272 268 264 258 254 253 253 251 251 252 254 256 257 259 257 253 252 251 251 252 249 243 242 252 259 257 256 255 253 255 257 257 257 258 257 256 257 256 256 258 260 260 260 262 265 268 272 275 274 273 274 274 274 274 273 273 271 271 271 269
313 305 299 292 282 274 268 260 254 253 257 265 268 268 271 272 273 275 276 275 273 275 284 290 286 280 274 270 265 259 257 256 254 254 255 255 256 256 257 258 257 256 255 257 257 255 252 244 243 246 250 258 265 264 261 260 261 263 263 263 262 262 263 263 263 264 264 265 265 266 266 270 273 274 273 273 274 275 275 274 274 273 273 273 270
326 315 302 296 287 274 265 256 250 251 253 260 272 280 285 285 281 279 275 276 278 279 291 296 286 280 276 272 272 267 261 258 255 256 257 257 257 257 257 258 259 260 260 261 261 259 257 252 250 250 251 256 263 268 270 269 267 267 268 268 267 266 266 267 267 268 267 268 269 270 269 269 271 273 273 273 274 275 275 275 276 275 274 275 274
340 328 306 301 297 282 270 261 256 258 258 262 280 293 294 291 285 278 271 273 279 280 293 297 285 287 291 288 284 271 254 252 255 255 258 259 260 260 259 259 258 261 263 262 261 262 259 255 254 255 258 259 259 262 266 270 270 272 275 274 272 271 270 270 270 271 271 271 271 271 272 272 272 273 274 275 275 274 275 276 277 277 276 276 275
348 343 321 312 313 304 294 283 278 277 271 274 293 302 298 290 282 278 275 272 271 269 276 286 292 299 293 281 286 284 257 231 230 245 261 263 264 262 259 259 259 260 262 261 261 262 260 260 258 258 260 263 265 263 261 260 262 270 278 280 280 281 279 277 275 275 276 275 274 272 271 272 272 273 273 275 276 275 276 276 277 278 278 276 275
356 356 342 327 326 325 323 320 316 313 304 299 301 301 295 288 281 278 276 273 268 261 255 262 282 295 289 282 283 279 266 243 253 280 275 262 257 262 266 265 262 258 257 256 258 262 263 264 264 264 265 267 270 270 266 261 258 266 278 285 290 294 295 292 288 284 281 278 275 273 270 268 270 272 273 274 276 277 278 278 278 278 278 276 276
6 7 359 344 336 331 328 326 321 316 310 302 298 296 291 286 285 281 275 274 273 271 260 250 260 269 271 284 283 266 274 322 323 299 277 271 271 277 278 274 271 267 262 260 258 259 260 261 264 264 265 267 271 271 269 267 263 267 279 291 297 305 308 304 300 296 290 284 279 276 272 268 268 269 271 272 273 274 274 274 274 274 275 274 275
15 15 8 357 347 336 327 320 314 309 305 298 294 293 290 287 287 286 282 278 278 278 269 257 259 259 256 265 273 275 293 314 312 294 282 284 283 287 287 285 287 281 274 269 266 263 260 257 258 260 260 261 266 271 271 270 268 268 273 284 293 303 306 302 299 297 294 287 281 279 276 272 270 271 273 273 272 272 270 268 268 269 268 267 269
20 18 13 6 358 347 336 323 313 307 301 298 296 295 295 293 292 294 292 287 283 280 277 272 266 259 258 261 261 266 275 283 290 295 294 287 283 287 289 288 293 293 286 276 270 268 265 262 257 254 252 250 254 263 269 270 271 275 282 291 297 300 300 297 296 294 290 285 280 280 280 277 277 279 279 277 275 275 274 272 270 269 267 266 267
18 15 16 14 8 359 349 340 333 326 314 302 298 300 300 300 300 299 296 291 289 285 283 284 281 277 275 267 263 267 269 268 273 280 286 287 288 287 286 287 293 297 290 283 279 274 271 270 267 260 252 248 252 259 266 272 274 277 283 290 295 298 297 293 293 291 288 287 286 285 284 283 282 281 280 278 275 273 274 276 274 273 273 273 272
17 16 18 18 15 7 0 354 352 346 337 329 320 314 310 309 309 306 301 296 291 289 290 292 292 295 294 282 277 279 276 271 273 278 282 285 288 291 296 298 297 299 302 297 289 280 276 274 271 269 262 256 257 259 263 268 276 291 301 295 293 294 291 290 295 295 294 294 293 291 288 287 288 285 281 276 272 272 273 275 276 276 277 277 277
18 19 19 17 13 9 5 3 1 355 351 352 350 344 338 330 327 325 322 317 309 302 304 309 309 310 311 307 306 305 300 296 294 297 295 289 289 301 310 313 311 307 300 292 291 288 284 278 272 270 265 261 263 264 270 282 303 334 334 310 296 296 292 298 309 307 307 305 300 297 291 290 294 289 282 277 273 273 274 274 274 275 278 279 278
17 19 17 12 6 4 3 2 3 0 359 1 1 359 349 342 349 352 342 340 348 345 328 322 324 328 331 327 327 332 330 324 318 314 306 301 302 307 311 312 311 304 298 299 299 294 287 278 270 266 268 282 301 312 326 341 345 356 359 336 310 312 316 323 332 327 322 320 313 310 304 303 307 300 289 284 281 280 279 280 279 278 281 282 280
15 16 12 7 2 358 359 359 1 3 3 3 0 352 352 8 21 16 5 7 16 18 5 1 4 357 354 345 335 336 339 333 326 321 316 314 312 306 307 311 311 303 300 296 282 295 333 337 336 347 346 343 353 4 12 18 13 16 24 13 341 325 338 344 348 344 335 327 319 317 316 316 322 319 303 290 286 286 284 284 284 282 282 281 281
12 11 5 2 357 354 356 356 356 359 3 9 11 8 15 27 30 23 20 19 20 26 21 20 24 16 8 6 357 352 355 353 342 336 332 323 312 305 311 314 311 300 298 300 310 7 22 10 5 13 20 22 19 22 27 27 26 33 36 29 22 11 6 5 1 355 347 340 337 336 334 334 339 341 334 317 306 302 296 290 287 286 285 284 283
7 2 356 355 353 352 352 353 354 357 6 18 29 39 44 45 43 42 45 39 34 42 37 31 33 27 17 19 18 11 7 4 354 349 348 338 326 325 322 311 308 303 302 329 5 27 27 17 19 23 32 38 33 33 34 30 40 55 57 48 45 45 35 27 23 11 4 0 358 0 1 0 3 9 6 351 332 321 314 306 299 294 288 283 279
358 352 351 351 352 350 350 357 359 359 16 28 33 43 54 58 55 54 57 56 52 54 53 48 46 39 28 26 29 27 19 13 7 4 0 354 349 347 339 321 315 305 290 3 37 38 32 37 43 36 34 35 34 39 39 34 45 53 51 47 44 47 48 48 48 37 22 18 18 27 30 25 24 32 26 352 330 323 316 310 304 297 287 279 275
351 350 354 354 354 356 359 7 5 7 30 35 37 51 61 63 61 56 51 48 46 46 47 46 43 39 35 31 32 30 20 14 13 10 4 0 360 0 354 344 335 313 301 32 55 45 37 41 45 38 34 31 28 36 41 43 49 44 38 43 43 42 43 44 50 52 46 41 41 48 49 40 34 35 35 22 1 347 334 323 316 309 302 298 292
356 354 358 358 0 8 13 14 16 30 38 41 55 67 65 62 61 51 35 24 26 30 29 31 31 29 27 26 26 25 17 10 10 10 6 5 5 8 4 353 347 328 320 18 46 43 40 42 43 36 33 34 24 25 38 45 54 55 48 53 52 44 41 41 45 51 53 53 54 56 54 46 40 37 36 33 20 11 6 353 345 335 326 321 314
0 358 0 1 7 17 20 20 28 40 43 50 67 73 71 69 62 44 24 15 20 23 19 21 24 24 23 24 24 26 22 15 14 12 7 7 5 7 5 354 358 356 340 9 51 41 36 40 42 36 31 33 25 21 33 38 51 60 54 54 53 42 39 45 53 57 55 54 56 56 54 51 47 42 38 31 18 16 21 15 8 358 347 338 327
3 0 2 6 17 24 23 25 36 44 45 51 65 78 83 76 56 31 20 20 25 26 24 26 28 29 30 31 31 28 25 23 25 22 16 13 5 6 7 0 5 2 343 339 66 50 37 36 37 32 25 27 28 28 32 33 43 54 48 43 45 38 34 38 49 59 59 55 56 57 57 56 52 49 47 40 27 27 30 26 20 13 7 359 346
3 4 10 18 30 33 32 35 40 45 52 65 79 81 74 58 37 25 22 23 29 33 34 35 36 35 33 35 36 29 26 27 28 28 26 24 18 17 18 12 16 7 349 1 79 76 49 44 41 33 25 29 36 36 33 29 33 41 40 37 39 40 38 34 39 51 58 57 58 60 60 57 54 52 50 47 43 41 38 33 29 24 22 16 6
6 9 20 33 40 41 46 48 50 60 70 77 76 63 44 32 27 30 30 31 38 41 41 41 40 38 35 36 36 31 29 30 30 31 30 29 30 30 31 26 28 25 3 9 70 90 66 53 50 44 37 38 41 37 31 29 28 31 35 39 41 39 39 40 38 45 54 55 56 60 61 58 55 51 48 46 45 44 42 39 37 33 29 25 18
13 19 35 49 50 51 61 63 71 81 76 64 52 36 28 33 37 39 39 40 46 46 45 45 42 40 39 39 37 33 32 34 34 35 32 33 37 37 37 36 34 34 22 14 42 72 68 54 51 48 42 40 40 34 29 28 26 28 34 40 46 38 34 41 41 43 52 53 52 56 57 56 54 49 46 43 41 41 41 40 39 37 33 30 25
24 39 56 63 59 62 73 77 82 82 65 46 41 40 42 47 50 50 48 48 51 50 49 48 45 45 44 42 40 35 35 39 41 40 37 36 40 41 41 41 38 37 34 30 40 62 68 56 46 44 42 40 38 32 28 28 27 32 37 40 47 40 34 39 40 41 51 51 47 52 52 47 48 46 42 39 36 36 38 37 38 38 35 32 29
47 66 75 75 72 73 76 80 81 72 61 56 55 54 54 55 56 57 57 57 56 55 54 51 48 47 46 44 41 37 39 43 43 42 41 40 43 44 44 46 46 44 43 44 48 58 67 61 49 42 41 41 38 31 27 28 28 34 42 42 43 40 35 36 35 35 46 44 38 45 48 38 35 38 37 34 31 30 32 33 33 34 34 32 30
71 88 93 87 85 86 83 82 80 74 70 69 66 63 61 60 60 61 62 62 61 60 57 54 52 50 48 45 41 39 42 46 46 44 42 43 47 47 47 50 50 50 51 52 55 59 64 63 54 45 40 38 37 32 26 24 25 29 41 44 41 37 34 33 31 28 33 34 29 36 43 33 24 26 29 30 30 28 28 30 30 30 30 29 28
88 99 102 96 93 94 89 84 81 75 69 66 65 66 64 64 65 66 66 65 65 63 60 58 56 54 51 48 44 42 42 43 44 44 44 46 48 46 45 48 51 53 55 55 57 61 62 62 57 49 42 36 32 30 25 22 24 24 25 33 37 35 32 31 28 22 21 25 24 27 37 39 27 20 20 25 30 31 30 29 29 29 27 25 24
98 105 105 101 98 95 91 84 77 71 68 67 66 66 68 69 69 71 71 71 69 67 65 63 62 59 57 53 51 52 53 52 49 47 45 46 47 48 45 44 47 52 55 57 58 59 60 59 56 51 44 38 32 29 23 20 26 26 19 19 23 25 30 33 28 20 17 21 22 22 30 41 37 24 17 21 27 29 31 32 31 29 27 24 22
103 106 108 109 106 100 93 83 77 72 68 65 65 66 68 71 76 77 75 76 76 73 70 69 66 65 62 60 60 62 63 63 64 66 65 58 50 46 43 43 48 51 54 56 56 57 57 56 53 49 45 40 33 26 21 19 22 20 12 10 12 12 18 34 31 21 15 15 18 21 25 29 34 30 23 25 26 25 28 32 32 29 27 25 23
109 109 114 117 115 110 100 89 84 76 67 68 77 84 81 75 77 79 77 77 79 78 75 73 71 70 68 67 67 68 69 70 71 73 74 73 68 60 52 48 48 49 54 56 55 55 54 52 51 47 42 39 30 22 19 16 13 8 4 6 11 9 9 26 37 25 16 12 9 19 23 20 24 33 31 31 31 26 26 30 30 28 26 25 24
118 119 123 124 124 117 107 98 91 80 74 76 81 93 102 93 81 79 82 79 77 79 78 76 76 74 73 73 69 66 67 70 73 75 75 75 73 70 68 67 61 55 53 53 52 53 52 50 45 40 39 36 27 20 15 8 3 1 2 5 8 9 10 20 34 25 17 12 1 13 25 18 14 29 30 29 33 30 27 29 29 28 27 26 25
129 131 133 133 133 124 115 109 98 89 86 83 79 83 100 102 90 79 81 80 76 78 78 77 79 79 78 78 71 64 65 66 68 72 75 76 74 72 71 70 69 67 62 57 51 47 50 51 43 36 36 32 24 19 12 3 360 358 359 4 7 10 14 18 22 17 14 10 357 1 26 20 12 24 29 25 32 30 25 27 30 30 30 29 27
139 141 141 142 141 135 127 119 109 103 98 90 83 80 91 103 98 85 80 81 77 77 77 78 81 80 81 81 76 75 78 76 69 68 71 73 72 71 69 69 70 70 68 68 63 50 46 48 45 39 30 23 22 19 8 358 352 351 356 4 7 8 13 18 20 14 10 9 1 353 21 20 10 17 27 23 28 25 15 21 29 32 31 32 31
145 146 147 148 148 146 139 127 119 117 110 98 89 82 85 102 101 88 82 83 81 78 77 76 79 81 82 83 81 79 76 74 72 68 67 66 64 63 62 63 65 67 68 69 69 65 56 49 47 42 29 21 19 12 4 358 350 349 357 3 4 6 8 11 16 12 9 11 6 346 7 19 9 10 23 16 18 25 7 10 22 28 29 32 32
151 151 151 153 153 151 148 137 128 128 124 111 97 86 85 101 101 91 86 87 84 82 79 77 78 79 78 81 84 82 73 74 84 82 71 70 70 67 64 62 62 63 66 66 64 65 62 54 50 42 32 29 23 14 13 10 1 351 347 347 348 346 336 333 358 13 14 14 9 352 357 18 8 3 16 10 7 23 8 358 11 20 23 26 29
155 155 155 160 160 157 157 148 137 139 141 128 110 95 92 102 101 92 88 92 89 85 83 81 80 79 78 80 84 83 81 90 100 100 90 81 81 79 76 72 66 64 66 65 62 63 63 60 57 48 40 39 34 28 26 20 14 357 331 325 329 329 323 314 8 33 26 15 13 7 357 10 6 358 5 4 359 17 14 359 3 11 15 19 22
158 159 159 163 165 164 163 158 149 151 158 149 128 114 106 105 102 96 97 100 96 92 90 85 83 81 76 77 84 88 91 96 100 102 98 87 80 81 81 80 76 68 64 63 62 62 63 62 60 55 48 45 45 42 32 23 25 16 347 340 351 349 3 35 33 35 36 16 13 10 351 358 4 356 354 356 355 11 16 8 3 5 9 12 12
161 162 161 162 167 169 167 168 161 157 170 174 154 138 129 118 111 111 117 111 103 103 99 91 87 89 94 97 90 85 97 103 100 100 99 91 82 85 87 84 84 79 69 63 63 64 67 66 64 63 59 56 57 52 39 32 35 29 15 10 9 3 17 33 21 24 41 21 9 6 356 354 1 356 349 348 351 12 13 10 6 4 7 10 7
164 163 162 160 164 167 168 174 171 163 177 191 178 163 154 137 128 132 134 124 119 114 110 103 96 97 112 120 111 102 110 111 106 107 105 96 86 90 95 89 84 83 78 70 66 63 63 62 60 59 54 50 51 46 38 42 48 44 32 12 3 5 18 27 12 12 39 25 8 7 5 356 359 359 352 348 357 24 13 5 6 6 6 8 7
165 163 163 161 161 163 166 178 180 170 180 198 191 181 173 153 142 148 152 136 131 127 123 118 109 102 109 120 120 118 118 114 111 115 114 106 96 88 98 97 88 83 79 80 87 74 57 50 47 43 36 36 38 32 29 36 44 46 36 16 7 10 16 21 12 8 29 22 7 9 7 351 355 1 355 351 357 11 7 4 6 8 5 5 7